Regional Weather Roundup
Issued by NWS

Home | Current Version | Previous Version | Graphics & Text | Print | Product List | Glossary On
Versions: 1 2 3 4 5 6 7 8 9 10 11 12 13 14 15 16 17 18 19 20 21 22 23 24 25 26 27 28 29 30 31 32 33 34 35 36 37 38 39 40 41 42 43 44 45 46 47 48 49 50
000
ASUS45 KBOU 202307
RWRCO

WEATHER ROUNDUP FOR COLORADO
NATIONAL WEATHER SERVICE DENVER/BOULDER CO
400 PM MST SAT DEC 20 2014

NOTE: "FAIR" INDICATES FEW OR NO CLOUDS BELOW 12000 FEET WITH NO
SIGNIFICANT WEATHER AND/OR OBSTRUCTIONS TO VISIBILITY.

COZ001>005-013-030-031-210000-
...NORTHWEST COLORADO...

CITY           SKY/WX    TMP DP  RH WIND       PRES   REMARKS
CRAIG          CLOUDY    32  25  75 NE6       30.05F WCI  26
HAYDEN         CLOUDY    28  21  74 E9        30.05F WCI  20
MEEKER         CLOUDY    32  25  75 N3        30.05F
MOUNT WERNER   NOT AVBL
STEAMBOAT SPGS CLOUDY    26  23  89 CALM      30.05F
WALDEN         MOCLDY    28  21  74 S12       30.00S WCI  18
$$

COZ006>008-011-210000-
...WEST CENTRAL VALLEYS...

CITY           SKY/WX    TMP DP  RH WIND       PRES   REMARKS
GRAND JUNCTION CLOUDY    37  28  70 NW5       30.12S
MONTROSE       CLOUDY    37  22  54 N7        30.11R
EAGLE          CLOUDY    30  21  69 CALM      30.10F
RIFLE          CLOUDY    35  23  61 CALM      30.10S
DELTA          CLOUDY    41  26  55 SW3       30.10S
NUCLA          CLOUDY    37  27  65 CALM      30.13F
$$

COZ017>023-064>068-210000-
...SOUTHWEST COLORADO...

CITY           SKY/WX    TMP DP  RH WIND       PRES   REMARKS
DURANGO        PTCLDY    37  26  64 SW8       30.08S
CORTEZ         CLEAR     38  28  67 W7        30.10S
PAGOSA SPRINGS PTCLDY    38  23  54 S5        30.07F
TELLURIDE      MOCLDY    32  21  64 W8        30.10R WCI  24
WOLF CREEK PAS MOCLDY    23  16  74 MISG      30.09F
$$

COZ009-010-012-014-032>034-037-058>063-210000-
...CENTRAL COLORADO...

CITY           SKY/WX    TMP DP  RH WIND       PRES   REMARKS
ASPEN          CLOUDY    29  19  66 NW5       30.06R WCI  24
BUENA VISTA    PTCLDY    37  13  37 SW18G24   29.99S
COPPER MTN     SNOW      23  18  80 W21       30.03F VSB 1/2 WCI   8
BERTHOUD PASS  CLOUDY    12   7  79 MISG      30.00S
COTTONWOOD PAS CLOUDY    32  12  43 N8        30.02S WCI  25
GUNNISON       CLOUDY    25  12  58 N6        30.12S WCI  18
KREMMLING      CLOUDY    28  19  69 CALM      30.07S
LEADVILLE      CLOUDY    25  14  63 NW14G20   30.03S WCI  13
MONARCH PASS   CLOUDY    18  14  86 SW30      30.13F WCI  -2
SALIDA         PTCLDY    40  18  40 SW14G24   30.07S
SUNLIGHT       CLOUDY    23  21  93 CALM      30.09S
WILKERSON PASS CLEAR     27  12  54 W7        30.05S WCI  19
$$

COZ069>075-210000-
...SAN LUIS VALLEY/SANGRE DE CRISTO MOUNTAINS...

CITY           SKY/WX    TMP DP  RH WIND       PRES   REMARKS
ALAMOSA        CLOUDY    37  15  40 CALM      30.04S
LA VETA PASS   NOT AVBL
SAGUACHE       PTCLDY    36  14  41 S7        30.05S
$$

COZ035-036-038>040-210000-
...NORTHERN COLORADO FRONT RANGE...

CITY           SKY/WX    TMP DP  RH WIND       PRES   REMARKS
DENVER INTL AP MOCLDY    39  21  48 E10       29.94S
DMNS CITY PARK   N/A     46  17  31 NE5       29.93S
AURORA         MOCLDY    41  19  41 E6        29.94F
FRONT RANGE AP NOT AVBL
ERIE MUNI ARPT   N/A     44  18  34 E3        29.93F
BOULDER MUN AP PTCLDY    43  19  39 CALM      29.93S
CENTENNIAL     MOCLDY    44  21  40 E6        29.93F
BROOMFIELD     MOCLDY    46  19  34 NE10      29.94S
FORT COLLINS   PTCLDY    43  18  36 E6        29.95F
LONGMONT       PTCLDY    45  20  36 CALM      29.96S
$$

COZ041-046-047-076>085-087-088-210000-
...PIKES PEAK/PALMER DIVIDE AND SOUTHERN FOOTHILLS...

CITY           SKY/WX    TMP DP  RH WIND       PRES   REMARKS
COLO. SPRINGS  MOCLDY    46  16  30 SE5       29.95R
A. F. ACADEMY  PTCLDY    48  14  25 W8        29.94R
ELLICOTT       NOT AVBL
FALCON         CLOUDY    45  12  26 S5        29.96S
FORT CARSON    CLOUDY    48  19  31 SE8       29.93R
LIMON          PTCLDY    47  15  27 S10       29.94R
MONUMENT HILL  CLOUDY    37  21  52 NE6       29.95S
TRINIDAD       CLEAR     48  13  24 SE6       29.94S
$$

COZ042>045-048>051-090-091-210000-
...NORTHEAST COLORADO...

CITY           SKY/WX    TMP DP  RH WIND       PRES   REMARKS
GREELEY ARPT   PTCLDY    43  16  33 SE6       29.92F
AKRON          CLOUDY    41  25  53 E7        29.95S
BURLINGTON     PTCLDY    46  30  53 E7        29.96S
WRAY           CLOUDY    40  32  74 CALM      29.96F
STERLING       CLOUDY    32  30  93 SW7       29.94S WCI  26
HOLYOKE        PTCLDY    41  32  70 SW5       29.95F
FORT MORGAN    MOCLDY    33  24  69 W3        29.96S
$$

COZ086-089-092>099-210000-
...SOUTHEAST COLORADO...

CITY           SKY/WX    TMP DP  RH WIND       PRES   REMARKS
PUEBLO         PTCLDY    51  20  29 E12       29.91R
LA JUNTA       PTCLDY    44  28  53 SE8       29.94S
LAMAR          MOCLDY    47  24  40 CALM      29.95S
SPRINGFIELD      N/A     48  24  39 SE7       29.94F
$$



USA.gov is the U.S. government's official web portal to all federal, state and local government web resources and services.